This is the latest recevied weather packets stored in our database for station/object W0BJ. If no packets are shown the sender has not sent any weather packets the latest 10 day(s).
| Time | Temp. | Humidity | Pressure | Rain* | Wind** | Luminosity | Snow |
|---|---|---|---|---|---|---|---|
| 1777683198 | 15.56° C | 41% | 1018.3 hPa | 0 mm | - | - | - |
| 1777683144 | 15.56° C | 41% | 1018.3 hPa | 0 mm | - | - | - |
| 1777682543 | 15.56° C | 38% | 1018.3 hPa | 0 mm | - | - | - |
| 1777682299 | 15.56° C | 39% | 1018.3 hPa | 0 mm | - | - | - |
| 1777681945 | 15.56° C | 44% | 1018.3 hPa | 0 mm | - | - | - |
| 1777681398 | 15.56° C | 41% | 1018.3 hPa | 0 mm | - | - | - |
| 1777681344 | 15.56° C | 40% | 1018.3 hPa | 0 mm | - | - | - |
| 1777680743 | 16.11° C | 39% | 1018.1 hPa | 0 mm | - | - | - |
| 1777680499 | 16.11° C | 39% | 1018.1 hPa | 0 mm | - | - | - |
| 1777680144 | 16.67° C | 35% | 1018 hPa | 0 mm | - | - | - |
| 1777679597 | 16.67° C | 35% | 1017.9 hPa | 0 mm | - | - | - |
| 1777679543 | 16.67° C | 33% | 1018 hPa | 0 mm | - | - | - |
| 1777678945 | 17.78° C | 35% | 1017.9 hPa | 0 mm | - | - | - |
| 1777678698 | 17.78° C | 33% | 1017.9 hPa | 0 mm | - | - | - |
| 1777678344 | 17.78° C | 33% | 1017.9 hPa | 0 mm | - | - | - |
| 1777677797 | 18.33° C | 32% | 1017.8 hPa | 0 mm | - | - | - |
| 1777677743 | 18.89° C | 32% | 1017.8 hPa | 0 mm | - | - | - |
| 1777677144 | 18.89° C | 32% | 1017.8 hPa | 0 mm | - | - | - |
| 1777676898 | 18.89° C | 32% | 1017.9 hPa | 0 mm | - | - | - |
| 1777676544 | 18.89° C | 33% | 1017.8 hPa | 0 mm | - | - | - |
| 1777675997 | 18.89° C | 31% | 1017.9 hPa | 0 mm | - | - | - |
| 1777675943 | 18.89° C | 31% | 1017.9 hPa | 0 mm | - | - | - |
| 1777675345 | 19.44° C | 31% | 1018.2 hPa | 0 mm | - | - | - |
| 1777675099 | 19.44° C | 31% | 1018.2 hPa | 0 mm | - | - | - |
| 1777674744 | 19.44° C | 33% | 1018.4 hPa | 0 mm | - | - | - |
* Rain latest hour (hover to see other rain measurements)
** Current wind speed in m/s (hover to see current wind gust speed)